Location: Boussac
(44.2782°N, 2.3665°E)
Time: 05:03:21
(UTC+00:00)

CZ-4B DEB - Pass Details

Date: 15 May 2026
Orbit: 833 x 854 km, 98.9° (Epoch: 6 June)

Event Time Altitude Azimuth Distance (km) Brightness Sun altitude
Exits shadow 20:01:15 - 168° (SSE) 3,285 6.8 -8.4°
Reaches altitude 10° 20:03:18 10° 170° (S) 2,475 6.2 -8.7°
Maximum altitude 20:08:48 77° 256° (WSW) 881 4.4 -9.5°
Drops below altitude 10° 20:14:21 10° 343° (NNW) 2,494 7.6 -10.3°
Sets 20:16:45 0° 345° (NNW) 3,433 8.4 -10.6°
